星链-31700 (STARLINK-31700 )

导读

STARLINK-31700是美国太空探索技术公司SpaceX星链(Starlink)项目的一颗卫星,于2024年4月7日发射升空,属于星链卫星互联网组网卫星,旨在为全球用户提供低延迟、高速率的宽带互联网服务,目前该卫星已进入预定轨道参与星链星座的运营组网。

基本信息
目录编号:
59436
目录名称:
STARLINK-31700
国际标识:
2024-065R
轨道中心:
EARTH
卫星名称:
星链-31700
卫星全名:
星链-31700 (STARLINK-31700 )
卫星状态:
在轨 (已飞行888 天)
发射日期:
2024-04-07 UTC
国别 :
美国 (US)
星等 :
--
该卫星已列入 空间交会检测服务 Space Conjunction Data Service (SCDS) ,当前飞行风险评估等级: 无高风险
轨道信息
数据来源 国际轨道数据 AOE轨道数据
星历时间 2026-09-11T09:58:59+0800
1天前
查看轨道信息
2026-09-09T23:00:00+0800
2天前
查看轨道信息
半长轴 6840.974km 6840.857km
偏心率 0.0001603 0.0001731
轨道倾角 53.156° 53.155°
近地点辐角 100.883° 138.115°
升交点赤经 137.723° 144.539°
平近点角 259.236° 85.982°
近地点 461.74km 461.535km
远地点 463.934km 463.905km
周期 93.850分钟 93.848分钟
每日圈数 15.343553 15.343946
详细信息
固有亮度:
5
最大亮度:
1.5
卫星平台:
Starlink v2.0 mini
覆盖范围:
全球
运营商:
太空探索技术公司
运营商所在国:
美国
制造商(研发单位):
太空探索技术公司
制造商所在国:
美国
使用方式:
暂无
卫星简介
星链(Starlink)计划是由太空探索技术公司(SpaceX)提出的一个巨型低轨卫星互联网星座项目,计划在2019年至2024年间在太空搭建由约1.2万颗卫星组成的“星链”网络,其中1584颗将部署在地球上空550千米处的近地轨道,并从2020年开始工作。该卫星仍在工作。
2D轨道图
3D轨道图
轨道高度分析图
轨道倾角分析图
轨道综合分析图
查看轨道综合分析图
与全量物体交会距离演化趋势
与全量物体交会风险概率演化趋势